Regional Weather Roundup
Issued by NWS

Home | Current Version | Previous Version | Text Only | Print | Product List | Glossary Off
Versions: 1 2 3 4 5 6 7 8 9 10 11 12 13 14 15 16 17 18 19 20 21 22 23 24 25 26 27 28

000
ASUS45 KSLC 241110
RWRUT

UTAH REGIONAL WEATHER ROUNDUP
NATIONAL WEATHER SERVICE SALT LAKE CITY UT
500 AM MDT FRI OCT 24 2014

UTZ001>011-023>025-241200-

NORTHERN UTAH

CITY           SKY/WX    TMP DP  RH WIND       PRES   REMARKS
BRIGHAM CITY   MOCLDY    47  39  74 CALM      30.12S
HILL AFB       CLEAR     55  32  41 SE5       30.13R
LOGAN          CLEAR     41  36  82 CALM      30.15R
OGDEN          PTCLDY    51  40  65 SE3       30.11S
PROVO AIRPORT  CLEAR     50  30  46 SE10      30.15S
SALT LAKE CITY PTCLDY    45  40  82 CALM      30.11R
VERNAL         PTCLDY    42  33  70 W3        30.23R
WENDOVER       CLEAR     45  32  61 CALM      30.12S
HEBER CITY     CLEAR     34  27  75 SE3       30.19S
WEST JORDAN    CLEAR     50  39  66 CALM      30.13R

$$

UTZ012>022-026-027-241200-

SOUTHERN/CENTRAL UTAH

CITY           SKY/WX    TMP DP  RH WIND       PRES   REMARKS
BLANDING       PTCLDY    47  30  51 CALM      30.37R
BRYCE CANYON   CLEAR     26  23  88 W6        30.36S WCI  19
CEDAR CITY     PTCLDY    41  29  62 E5        30.22F
DELTA          CLEAR     56  26  31 S15       30.15S
HANKSVILLE       N/A     43  32  65 CALM      30.22R
MILFORD        CLEAR     52  30  43 SW14      30.19S
MOAB/CYNLANDS  CLEAR     48  34  58 CALM      30.20R
PRICE          CLEAR     44  33  65 NE3       30.25S
ST GEORGE      SUNNY     55  30  38 CALM      30.16R
KANAB            N/A     39  30  70 NE5       30.28R

$$

REGIONAL REPORTS     COLORADO/ARIZONA

CITY           SKY/WX    TMP DP  RH WIND       PRES   REMARKS
CRAIG, CO      CLEAR     31  28  89 SE3       30.28R
GRAND JUNCTION CLEAR     48  35  60 S7        30.23R
RIFLE          PTCLDY    36  33  89 CALM      30.30R
MONTROSE       CLEAR     39  31  72 SE7       30.31S WCI  34
CORTEZ         CLEAR     33  28  81 CALM      30.32R
PAGE, AZ       CLEAR     55  33  43 CALM      30.20S
GRAND CANYON   HAZE      29  24  82 CALM      30.33F VSB 1
KINGMAN        CLEAR     56  37  49 S7        30.13S
FLAGSTAFF      PTCLDY    34  30  85 CALM      30.36R

$$

REGIONAL REPORTS    NEVADA/IDAHO/WYOMING

CITY           SKY/WX    TMP DP  RH WIND       PRES   REMARKS
LAS VEGAS, NV  CLEAR     63  36  36 SW8       30.01S
ELY            CLEAR     49  26  41 SW10      30.22S
ELKO           PTCLDY    37  21  52 NE3       30.12F
POCATELLO, ID  CLOUDY    49  38  65 SW5       30.15R
BURLEY         CLOUDY    46  39  76 CALM      30.11F
EVANSTON, WY   CLEAR     43  23  45 SW13      30.22R
ROCK SPRINGS   PTCLDY    44  27  51 CALM      30.20S
KEMMERER       PTCLDY    41  27  56 CALM      30.22S

$$



USA.gov is the U.S. government's official web portal to all federal, state and local government web resources and services.